Weather Roundup
Issued by NWS Chicago, IL

Home | Current Version | Previous Version | Text Only | Print | Product List | Glossary On
Versions: 1 2 3 4 5 6 7 8 9 10 11 12 13 14 15 16 17 18 19 20 21 22 23 24 25 26 27 28 29 30 31 32 33 34 35 36 37 38 39 40 41 42 43 44 45 46 47 48 49 50
000
NZUS59 KLOT 061808
HRRLOT

CHICAGO AREA WEATHER ROUNDUP
NATIONAL WEATHER SERVICE CHICAGO/ROMEOVILLE IL
100 PM CDT FRI MAY 06 2016

NOTE: "FAIR" INDICATES FEW OR NO CLOUDS BELOW 12,000 FEET WITH NO
SIGNIFICANT WEATHER AND/OR OBSTRUCTIONS TO VISIBILITY.

* THESE STATIONS ARE NOT UNDER NWS QUALITY CONTROL. THEY ALSO MAY NOT
  REPORT WEATHER SUCH AS PRECIPITATION OR FOG.

ILZ005-006-012>014-019>023-061900-
NORTHEAST ILLINOIS

CITY           SKY/WX    TMP DP  RH WIND       PRES   REMARKS
OHARE          MOSUNNY   74  42  31 SW10      29.90F
6HR MIN TEMP:  52; 6HR MAX TEMP:  74; 6HR PCP: TRACE;

MIDWAY         MOSUNNY   73  43  33 S9        29.92F
6HR MIN TEMP:  52; 6HR MAX TEMP:  73;

AURORA         SUNNY     76  46  34 SW14      29.92F
6HR MIN TEMP:  47; 6HR MAX TEMP:  77;

LANSING*       MOSUNNY   71  40  33 SW9       29.94F
JOLIET*        SUNNY     76  45  32 SW8       29.93F
WAUKEGAN       MOSUNNY   75  44  33 SW6G16    29.88F
6HR MIN TEMP:  52; 6HR MAX TEMP:  75; 6HR PCP: TRACE;

DUPAGE AIRPORT SUNNY     74  45  35 SW10      29.90F
6HR MIN TEMP:  48; 6HR MAX TEMP:  75; 6HR PCP: TRACE;

WHEELING       SUNNY     74  43  32 SW6       29.91F
6HR MIN TEMP:  50; 6HR MAX TEMP:  74;

KANKAKEE*      MOSUNNY  N/A N/A N/A SW7       29.96F
MORRIS*        SUNNY     76  42  30 W7        29.92F
LEWIS AIRPORT* SUNNY     73  39  29 SW13      29.92F
$$

WIZ051-052-058>065-066-070>072-061900-
SOUTHEAST WISCONSIN

CITY           SKY/WX    TMP DP  RH WIND       PRES   REMARKS
MILWAUKEE      MOSUNNY   76  43  30 SW8       29.87F
6HR MIN TEMP:  52; 6HR MAX TEMP:  77;

KENOSHA*       SUNNY     76  45  33 S10       29.89F
RACINE*        SUNNY     70  44  39 SE9       29.89F
BURLINGTON     SUNNY     77  44  31 W8        29.88F
WAUKESHA       SUNNY     75  45  33 W7        29.87F
WEST BEND      SUNNY     77  43  29 W6        29.85F
$$

INZ001>003-010>013-019-020-061900-
NORTHWEST INDIANA

CITY           SKY/WX    TMP DP  RH WIND       PRES   REMARKS
GARY*          MOSUNNY  N/A N/A N/A W8        29.94F
MICHIGAN CITY* NOT AVBL
RENSSELAER*    NOT AVBL
VALPARAISO     SUNNY     71  37  28 W6        29.95F
$$

LMZ740>746-061900-
SOUTHERN LAKE MICHIGAN

STATION/POSITION TIME  SKY/WX   TEMP WIND        PRES    VSBY
                                AIR  DIR/SP/G
                 (UTC)          (F)  (DEG/KT/KT) (MB)    (MI)
HARRISON CRIB    1700            65  190/  9/ 10   N/A
BURNHAM HARBOR   1800            71  210/ 11/ 11   N/A
CALUMET HARBOR   1700            69  190/  7/ 13 1013.8F
BURNS HARBOR     1700            63  330/  2/  4 1015.6F
MICHIGAN CITY    1700            60  230/  4/  4   N/A
$$

ABBREVIATIONS USED IN REMARKS
   TC - TEMPERATURE IN CELSIUS
  WCI - WIND CHILL INDEX
   HX - HEAT INDEX
  VSB - VISIBILITY
$$




USA.gov is the U.S. government's official web portal to all federal, state and local government web resources and services.